sat.trackr.live / text

‹ back to catalog

COSMOS 2522 (752)

NORAD 42939 · 2017-055A

PAYLOAD ACTIVE UNKNOWN

§ Identity

Operator
Country
CIS
Launch date
2017-09-22
Launch site
PLMSC
Launch vehicle
Mass (kg)
RCS (m²)

Purposes: nav

External: N2YO · Heavens-Above · Gunter

§ Orbital elements

Epoch: 2026-09-12T09:43:17.787936Z

Period
675.73 min
Inclination
64.0798°
Eccentricity
0.0009491
Mean motion
2.13101858 rev/d
Perigee alt
19,105.7 km
Apogee alt
19,154.1 km
Semi-major
25,508.0 km
B*
0.0000e+0
RAAN
188.9174°
Arg perigee
236.7036°
Mean anomaly
123.2007°
Rev number
6,983

§ Raw data

COSMOS 2522 (752)1 42939U 17055A   26255.40506699  .00000006  00000+0  00000+0 0  99982 42939  64.0798 188.9174 0009491 236.7036 123.2007  2.13101858 69831

JSON: /api/v1/satellites/42939 · /tle

For live sub-satellite position, see the globe view (requires WebGL).

§ Visibility from observer

Set your observer location to see the next 7 days of passes ≥ 10°. The values pass through the URL so the page stays shareable.

No JS? Fill the form by hand. The geolocation button needs JavaScript.